Regional Weather Roundup
Issued by NWS

Home | Current Version | Previous Version | Graphics & Text | Print | Product List | Glossary On
Versions: 1 2 3 4 5 6 7 8 9 10 11 12 13 14 15 16 17 18 19 20 21 22 23 24 25 26 27 28 29 30 31 32 33 34 35 36 37 38 39 40 41 42 43 44 45 46 47 48 49 50
000
ASUS43 KDTX 270601
RWRMI
MICHIGAN HOURLY REGIONAL WEATHER ROUNDUP
NATIONAL WEATHER SERVICE DETROIT/PONTIAC MI
200 AM EDT WED JUL 27 2016

NOTE: "FAIR" INDICATES FEW OR NO CLOUDS BELOW 12,000 FEET WITH NO
SIGNIFICANT WEATHER AND/OR OBSTRUCTION TO VISIBILITY.

MIZ047>049-052>055-059>063-066>070-074>076-081>083-270700-
SOUTHEAST LOWER MICHIGAN

CITY           SKY/WX    TMP DP  RH WIND       PRES   REMARKS
ADRIAN         CLEAR     67  63  87 CALM      30.01F
6HR MIN TEMP:  65; 6HR MAX TEMP:  82;

ALMA           CLEAR     64  62  94 W6        29.99F
ANN ARBOR      CLEAR     64  61  90 CALM      30.00F
BAD AXE        CLEAR     65  59  83 CALM      29.98S
CARO           CLEAR     63  62  97 CALM      29.97F
DETROIT CITY   CLEAR     74  63  68 SW6       29.99F
6HR MIN TEMP:  74; 6HR MAX TEMP:  81;

DETROIT        PTCLDY    71  62  73 SW3       30.00F
6HR MIN TEMP:  71; 6HR MAX TEMP:  82;

FLINT          CLEAR     68  62  81 CALM      30.00S
6HR MIN TEMP:  67; 6HR MAX TEMP:  87;

GROSSE ILE     CLEAR     73  65  76 SW5       29.99S
6HR MIN TEMP:  71; 6HR MAX TEMP:  79;

HOWELL         CLEAR     68  63  85 CALM      30.01S

CITY           SKY/WX    TMP DP  RH WIND       PRES   REMARKS
JACKSON        CLEAR     67  66  97 CALM      30.01F
6HR MIN TEMP:  67; 6HR MAX TEMP:  82;

LAMBERTVILLE   CLEAR     66  63  89 CALM      30.01F
6HR MIN TEMP:  66; 6HR MAX TEMP:  84;

LANSING        CLEAR     68  63  84 W3        30.01S
6HR MIN TEMP:  68; 6HR MAX TEMP:  84;

LAPEER         FAIR      63  62  95 CALM      30.00S
6HR MIN TEMP:  62; 6HR MAX TEMP:  84;

MASON          CLEAR     65  62  91 SE3       30.01S
MONROE         CLEAR     66  64  93 CALM      30.00S
6HR MIN TEMP:  65; 6HR MAX TEMP:  79;

MT. CLEMENS    CLEAR     72  63  71 SW6       29.97F
6HR MIN TEMP:  72; 6HR MAX TEMP:  79;

PONTIAC        CLEAR     72  62  71 CALM      29.99F
6HR MIN TEMP:  71; 6HR MAX TEMP:  84;

PORT HURON     CLEAR     64  63  94 CALM      29.98F
TRI CITIES     CLEAR     70  64  81 W7        29.98F
6HR MIN TEMP:  68; 6HR MAX TEMP:  84;

MIDLAND        FAIR      66  62  85 CALM      29.97F
6HR MIN TEMP:  65; 6HR MAX TEMP:  83;

TROY           CLEAR     74  59  58 CALM      30.01F
SAGINAW HB     CLEAR     70  61  73 W6        29.97F
$$
MIZ043>046-050>051-056>058-064>065-071>073-077>080-270700-
SOUTHWEST LOWER MICHIGAN

CITY           SKY/WX    TMP DP  RH WIND       PRES   REMARKS
BATTLE CREEK   CLEAR     65  65 100 CALM      30.01F
6HR MIN TEMP:  65; 6HR MAX TEMP:  80;

BENTON HARBOR  CLEAR     64  61  90 CALM      30.01S
6HR MIN TEMP:  63; 6HR MAX TEMP:  80;

BIG RAPIDS     CLEAR     64  64  99 CALM      29.99F
6HR MIN TEMP:  64; 6HR MAX TEMP:  80;

COLDWATER      CLEAR     65  64  99 CALM      30.01F
6HR MIN TEMP:  65; 6HR MAX TEMP:  82;

FREMONT        FAIR      65  65 100 CALM      29.99F
HOLLAND        CLEAR     63  61  93 CALM      30.01F
6HR MIN TEMP:  61; 6HR MAX TEMP:  79;

GRAND RAPIDS   CLEAR     68  62  81 W5        30.01S
6HR MIN TEMP:  67; 6HR MAX TEMP:  82;

IONIA          FAIR      68  60  75 SW5       30.00S
6HR MIN TEMP:  65; 6HR MAX TEMP:  82;

KALAMAZOO      CLEAR     67  63  87 CALM      30.01F
6HR MIN TEMP:  67; 6HR MAX TEMP:  82;

LUDINGTON      CLEAR     72  67  85 SW7       29.97S
6HR MIN TEMP:  72; 6HR MAX TEMP:  78;

MARSHALL       CLEAR     66  65  97 CALM      30.00F
6HR MIN TEMP:  66; 6HR MAX TEMP:  82;

MOUNT PLEASANT CLEAR     69  62  78 W3        29.98S
6HR MIN TEMP:  69; 6HR MAX TEMP:  84;

MUSKEGON         N/A     68  65  90 CALM      29.99F
6HR MIN TEMP:  67; 6HR MAX TEMP:  80;

SOUTH HAVEN    CLEAR     62  62  99 CALM      30.01S
$$
MIZ016>042-270700-
NORTHERN LOWER MICHIGAN

CITY           SKY/WX    TMP DP  RH WIND       PRES   REMARKS
ALPENA         PTCLDY    71  60  68 SW5       29.94F
6HR MIN TEMP:  65; 6HR MAX TEMP:  79;

BEAVER ISLAND  MOCLDY    72  67  85 SW8       29.93R
6HR MIN TEMP:  71; 6HR MAX TEMP:  77;

BELLAIRE       CLEAR     73  61  64 S3        29.94S
6HR MIN TEMP:  73; 6HR MAX TEMP:  83;

CADILLAC       CLEAR     67  59  76 CALM      29.99F
CHARLEVOIX     CLEAR     74  61  63 SW7       29.95R
6HR MIN TEMP:  74; 6HR MAX TEMP:  81;

FRANKFORT      CLEAR     74  63  68 SW5       29.95F
GAYLORD        CLEAR     70  59  68 SW6       29.96F
6HR MIN TEMP:  70; 6HR MAX TEMP:  82;

GRAYLING       CLEAR     71  59  65 W5        29.98F
6HR MIN TEMP:  70; 6HR MAX TEMP:  83;

HARBOR SPRINGS CLEAR     73  63  70 W6        29.92F
HOUGHTON LAKE  CLEAR     72  60  66 SW6       29.99F
6HR MIN TEMP:  72; 6HR MAX TEMP:  83;

MANISTEE       CLEAR     63  61  93 CALM      29.96F
OSCODA         CLEAR     69  59  69 W8        29.95S
6HR MIN TEMP:  68; 6HR MAX TEMP:  82;

PELLSTON       CLEAR     70  63  78 CALM      29.92S
6HR MIN TEMP:  70; 6HR MAX TEMP:  80; 6HR PCP: TRACE;

ROGERS CITY    PTCLDY    69  65  89 E6        29.95F
TRAVERSE CITY  CLEAR     75  58  55 SW7       29.92F
6HR MIN TEMP:  75; 6HR MAX TEMP:  84;

$$
MIZ007>008-015-270700-
EASTERN UPPER MICHIGAN

CITY           SKY/WX    TMP DP  RH WIND       PRES   REMARKS
KINROSS        CLOUDY    66  65  96 SE5       29.91F
6HR MIN TEMP:  66; 6HR MAX TEMP:  77; 6HR PCP:  0.81;

MACKINAC ISLAN MOCLDY    71  65  83 SW7       29.92R
6HR MIN TEMP:  70; 6HR MAX TEMP:  76; 6HR PCP:  0.03;

S. S. MARIE    PTCLDY    65  63  93 CALM      29.90S
6HR MIN TEMP:  65; 6HR MAX TEMP:  77; 6HR PCP:  0.18;

$$
MIZ004>006-011>014-085-270700-
CENTRAL UPPER MICHIGAN

CITY           SKY/WX    TMP DP  RH WIND       PRES   REMARKS
MANISTIQUE     CLEAR     66  65  97 CALM      29.93R
6HR MIN TEMP:  66; 6HR MAX TEMP:  72; 6HR PCP:  0.04;

ESCANABA       PTCLDY    70  64  83 NW3       29.92S
6HR MIN TEMP:  66; 6HR MAX TEMP:  81;

MENOMINEE      PTCLDY   N/A N/A N/A CALM      29.95S
SAWYER-GWINN   CLEAR     66  64  93 SW5       29.95F
6HR MIN TEMP:  65; 6HR MAX TEMP:  71;

$$
MIZ001>003-009>011-084-270700-
WESTERN UPPER MICHIGAN

CITY           SKY/WX    TMP DP  RH WIND       PRES   REMARKS
IRON MOUNTAIN  CLEAR     65  62  90 CALM      29.97R
6HR MIN TEMP:  65; 6HR MAX TEMP:  86; 6HR PCP:  0.04;

HOUGHTON       CLEAR     67  63  87 NW8       29.95R
6HR MIN TEMP:  67; 6HR MAX TEMP:  77;

IRONWOOD       CLOUDY    70  68  94 W5        29.97S
6HR MIN TEMP:  64; 6HR MAX TEMP:  79;

$$

ABBREVIATIONS USED IN REMARKS
   TC - TEMPERATURE IN CELSIUS
  WCI - WIND CHILL INDEX
   HX - HEAT INDEX
  VSB - VISIBILITY





USA.gov is the U.S. government's official web portal to all federal, state and local government web resources and services.